This demonstration page uses our WeatherBlox Daily Observations layout. Learn more.

Left ArrowRight Arrow

Hourly Observations for January 28, 2022

Temp ( °F °C ) Dew Point ( °F °C ) Humidity (%) Winds ( mph kmh ) Pressure ( in mb ) Visibility ( mi km ) Precip ( " mm )
12:52 am 00:52 Mostly Clear 11 -11.7 -1 -18.3 58 58 NNW 12 19 30.52 1034 10 16 0.00 0.00
1:52 am 01:52 Partly Cloudy 10 -12.2 -1 -18.3 61 61 NNW 12 19 30.52 1034 10 16 0.00 0.00
2:52 am 02:52 Mostly Clear 8 -13.3 -2 -18.9 63 63 N 9 15 30.53 1034 10 16 0.00 0.00
3:52 am 03:52 Mostly Clear 7 -13.9 -3 -19.4 63 63 NNW 10 17 30.53 1034 10 16 0.00 0.00
4:52 am 04:52 Mostly Clear 5 -15 -3 -19.4 69 69 N 7 11 30.53 1034 10 16 0.00 0.00
5:52 am 05:52 Mostly Clear 5 -15 -4 -20 66 66 N 8 13 30.53 1034 10 16 0.00 0.00
6:52 am 06:52 Mostly Clear 4 -15.6 -4 -20 69 69 NNE 5 7 30.54 1034 10 16 0.00 0.00
7:52 am 07:52 Partly Cloudy 4 -15.6 -3 -19.4 73 73 NNE 5 7 30.55 1034 10 16 0.00 0.00
8:52 am 08:52 Partly Cloudy 8 -13.3 -1 -18.3 66 66 NW 6 9 30.54 1034 10 16 0.00 0.00
9:52 am 09:52 Sunny 10 -12.2 0 -17.8 63 63 Calm 30.55 1035 10 16 0.00 0.00
10:52 am 10:52 Sunny 16 -8.9 -1 -18.3 47 47 Calm 30.55 1035 10 16 0.00 0.00
11:52 am 11:52 Sunny 19 -7.2 -3 -19.4 37 37 Calm 30.52 1034 10 16 0.00 0.00
12:52 pm 12:52 Mostly Sunny 23 -5 -4 -20 30 30 VRB 5 7 30.48 1032 10 16 0.00 0.00
1:52 pm 13:52 Mostly Sunny 26 -3.3 -3 -19.4 28 28 S 6 9 30.44 1031 10 16 0.00 0.00
2:52 pm 14:52 Mostly Sunny 29 -1.7 2 -16.7 31 31 SSW 7 11 30.42 1030 10 16 0.00 0.00
3:52 pm 15:52 Partly Cloudy 31 -0.6 7 -13.9 36 36 SSW 7 11 30.40 1029 10 16 0.00 0.00
4:52 pm 16:52 Partly Cloudy 31 -0.6 8 -13.3 38 38 S 8 13 30.38 1029 10 16 0.00 0.00
5:52 pm 17:52 Mostly Clear 27 -2.8 10 -12.2 49 49 SSE 8 13 30.37 1028 10 16 0.00 0.00
6:52 pm 18:52 Mostly Clear 27 -2.8 10 -12.2 49 49 SSE 10 17 30.35 1028 10 16 0.00 0.00
7:52 pm 19:52 Clear 26 -3.3 10 -12.2 51 51 SSE 13 20 30.34 1028 10 16 0.00 0.00
8:52 pm 20:52 Clear 25 -3.9 10 -12.2 53 53 S 13 20 30.31 1026 10 16 0.00 0.00
9:52 pm 21:52 Clear 24 -4.4 10 -12.2 55 55 SSE 14 22 30.29 1026 10 16 0.00 0.00
10:52 pm 22:52 Mostly Clear 24 -4.4 10 -12.2 55 55 SSE 13 20 30.25 1025 10 16 0.00 0.00
11:52 pm 23:52 Partly Cloudy 22 -5.6 11 -11.7 63 63 SSE 12 19 30.23 1024 10 16 0.00 0.00

Powered by AerisWeather